| time (UTC) | temp C | wind direction | speed KPH | gust KPH | rain 1hr cm | rain 24hr cm | rain mn cm | humidity % | barometer mb |
| 20260506145016 | 17 | 302 | 19.3 | 30.6 | 0.00 | 0.53 | 0.15 | 69 | 1011.1 |
| 20260506144016 | 17 | 312 | 14.5 | 29.0 | 0.00 | 0.53 | 0.15 | 69 | 1011.2 |
| 20260506143016 | 17 | 315 | 16.1 | 27.4 | 0.00 | 0.53 | 0.15 | 68 | 1011.2 |
| 20260506142036 | 17 | 333 | 14.5 | 27.4 | 0.00 | 0.53 | 0.15 | 66 | 1011.3 |
| 20260506141016 | 17 | 332 | 16.1 | 24.1 | 0.00 | 0.53 | 0.15 | 68 | 1011.3 |
| 20260506140123 | 17 | 0 | 17.7 | 24.1 | 0.00 | 0.53 | 0.15 | 70 | 1011.3 |
| 20260506135016 | 17 | 346 | 20.9 | 25.7 | 0.00 | 0.53 | 0.15 | 68 | 1011.4 |
| 20260506134016 | 17 | 304 | 22.5 | 29.0 | 0.00 | 0.53 | 0.15 | 65 | 1011.4 |
| 20260506133016 | 17 | 298 | 11.3 | 20.9 | 0.00 | 0.53 | 0.15 | 65 | 1011.5 |
| 20260506132016 | 17 | 306 | 11.3 | 20.9 | 0.00 | 0.53 | 0.15 | 67 | 1011.6 |
| 20260506131016 | 17 | 324 | 12.9 | 22.5 | 0.00 | 0.53 | 0.15 | 70 | 1011.5 |
| 20260506130036 | 17 | 329 | 14.5 | 24.1 | 0.00 | 0.53 | 0.15 | 69 | 1011.6 |
| 20260506125016 | 17 | 282 | 14.5 | 19.3 | 0.00 | 0.53 | 0.15 | 69 | 1011.6 |
| 20260506124015 | 16 | 313 | 9.7 | 29.0 | 0.00 | 0.53 | 0.15 | 71 | 1011.6 |
| 20260506123016 | 16 | 338 | 17.7 | 24.1 | 0.00 | 0.53 | 0.15 | 72 | 1011.7 |
| 20260506122015 | 16 | 337 | 19.3 | 25.7 | 0.00 | 0.53 | 0.15 | 72 | 1011.8 |
| 20260506121016 | 16 | 328 | 14.5 | 20.9 | 0.00 | 0.53 | 0.15 | 72 | 1011.8 |
| 20260506120036 | 16 | 338 | 12.9 | 20.9 | 0.00 | 0.53 | 0.15 | 71 | 1011.9 |
| 20260506115015 | 16 | 323 | 16.1 | 27.4 | 0.00 | 0.53 | 0.15 | 70 | |
| 20260506114016 | 16 | 291 | 14.5 | 24.1 | 0.00 | 0.53 | 0.15 | 72 | |
| 20260506113016 | 15 | 292 | 17.7 | 27.4 | 0.00 | 0.53 | 0.15 | 71 | |
| 20260506112015 | 15 | 272 | 14.5 | 24.1 | 0.00 | 0.53 | 0.15 | 72 | |
| 20260506111015 | 15 | 288 | 16.1 | 25.7 | 0.00 | 0.53 | 0.15 | 71 | |
| 20260506110056 | 15 | 309 | 14.5 | 19.3 | 0.00 | 0.53 | 0.15 | 72 | |
| 20260506105015 | 15 | 293 | 14.5 | 24.1 | 0.00 | 0.53 | 0.15 | 73 | |
| 20260506104015 | 15 | 288 | 20.9 | 37.0 | 0.00 | 0.53 | 0.15 | 72 | |
| 20260506103015 | 15 | 298 | 12.9 | 20.9 | 0.00 | 0.53 | 0.15 | 73 | |
| 20260506102015 | 15 | 287 | 16.1 | 29.0 | 0.00 | 0.53 | 0.15 | 71 | |
| 20260506101015 | 15 | 287 | 19.3 | 30.6 | 0.00 | 0.53 | 0.15 | 73 | |
| 20260506100015 | 15 | 281 | 19.3 | 29.0 | 0.00 | 0.53 | 0.15 | 73 | |
| 20260506095056 | 15 | 270 | 20.9 | 29.0 | 0.00 | 0.53 | 0.15 | 72 | |
| 20260506094015 | 15 | 283 | 17.7 | 27.4 | 0.00 | 0.53 | 0.15 | 72 | |
| 20260506093015 | 15 | 272 | 16.1 | 32.2 | 0.00 | 0.53 | 0.15 | 72 | |
| 20260506092056 | 15 | 277 | 19.3 | 27.4 | 0.00 | 0.53 | 0.15 | 74 | |
| 20260506091015 | 14 | 299 | 16.1 | 27.4 | 0.00 | 0.53 | 0.15 | 73 | |
| 20260506090035 | 13 | 280 | 16.1 | 22.5 | 0.00 | 0.53 | 0.15 | 76 | |
| 20260506085015 | 13 | 275 | 16.1 | 22.5 | 0.00 | 0.53 | 0.15 | 77 | |
| 20260506084015 | 13 | 287 | 17.7 | 24.1 | 0.00 | 0.53 | 0.15 | 77 | |
| 20260506083015 | 13 | 296 | 16.1 | 24.1 | 0.00 | 0.53 | 0.15 | 78 | |
| 20260506082015 | 13 | 289 | 16.1 | 22.5 | 0.00 | 0.53 | 0.15 | 78 | |
| 20260506081015 | 13 | 284 | 17.7 | 24.1 | 0.00 | 0.53 | 0.15 | 79 | |
| 20260506073017 | 12 | 283 | 19.3 | 27.4 | 0.00 | 0.53 | 0.15 | 82 | |
| 20260506072017 | 12 | 284 | 19.3 | 30.6 | 0.00 | 0.53 | 0.15 | 83 | |
| 20260506071037 | 12 | 286 | 14.5 | 22.5 | 0.00 | 0.53 | 0.15 | 85 | |
| 20260506062017 | 10 | 306 | 11.3 | 17.7 | 0.00 | 0.53 | 0.15 | 90 | |
| 20260506061017 | 10 | 304 | 8.0 | 12.9 | 0.00 | 0.53 | 0.15 | 91 | |
| 20260506051016 | 10 | 309 | 4.8 | 6.4 | 0.00 | 0.53 | 0.15 | 91 | |
| 20260506045017 | 9 | 312 | 4.8 | 11.3 | 0.00 | 0.53 | 0.15 | 91 | 1011.8 |
| 20260506044016 | 9 | 317 | 6.4 | 12.9 | 0.00 | 0.53 | 0.15 | 92 | 1011.7 |
| 20260506043037 | 10 | 317 | 6.4 | 11.3 | 0.00 | 0.53 | 0.15 | 92 | 1011.7 |
| 20260506042016 | 10 | 315 | 8.0 | 9.7 | 0.00 | 0.53 | 0.15 | 92 | 1011.7 |
| 20260506041016 | 10 | 315 | 8.0 | 12.9 | 0.00 | 0.53 | 0.15 | 92 | 1011.7 |
| 20260506040017 | 10 | 307 | 8.0 | 12.9 | 0.00 | 0.53 | 0.15 | 92 | 1011.6 |
| 20260506035016 | 10 | 316 | 8.0 | 14.5 | 0.00 | 0.53 | 0.15 | 92 | 1011.7 |
| 20260506034016 | 10 | 281 | 4.8 | 6.4 | 0.00 | 0.53 | 0.15 | 92 | 1011.7 |
| 20260506033016 | 10 | 281 | 4.8 | 6.4 | 0.00 | 0.53 | 0.15 | 92 | 1011.7 |
| 20260506032016 | 10 | 281 | 3.2 | 6.4 | 0.00 | 0.53 | 0.15 | 92 | 1011.9 |
| 20260506031016 | 10 | 281 | 3.2 | 4.8 | 0.00 | 0.53 | 0.15 | 92 | 1011.8 |
| 20260506030016 | 10 | 281 | 4.8 | 6.4 | 0.00 | 0.53 | 0.15 | 92 | 1011.8 |
| 20260506025016 | 10 | 281 | 4.8 | 6.4 | 0.00 | 0.53 | 0.15 | 91 | 1011.9 |
| 20260506024016 | 10 | 281 | 4.8 | 6.4 | 0.00 | 0.53 | 0.15 | 91 | 1011.8 |
| 20260506023016 | 10 | 281 | 4.8 | 6.4 | 0.00 | 0.53 | 0.15 | 91 | 1011.8 |
| 20260506022016 | 10 | 281 | 4.8 | 6.4 | 0.00 | 0.53 | 0.15 | 91 | 1011.8 |
| 20260506021016 | 10 | 281 | 4.8 | 9.7 | 0.00 | 0.53 | 0.15 | 91 | 1011.8 |
| 20260506020016 | 10 | 281 | 6.4 | 11.3 | 0.00 | 0.53 | 0.15 | 91 | 1011.8 |
| 20260506015016 | 11 | 281 | 9.7 | 11.3 | 0.00 | 0.53 | 0.15 | 91 | 1011.8 |
| 20260506014016 | 11 | 281 | 8.0 | 11.3 | 0.00 | 0.53 | 0.15 | 91 | 1011.9 |
| 20260506013036 | 11 | 281 | 8.0 | 14.5 | 0.00 | 0.53 | 0.15 | 91 | 1011.9 |
| 20260506012016 | 11 | 282 | 9.7 | 12.9 | 0.00 | 0.53 | 0.15 | 91 | 1011.8 |
| 20260506011016 | 11 | 286 | 11.3 | 14.5 | 0.00 | 0.53 | 0.15 | 91 | 1011.9 |
| 20260506010016 | 11 | 284 | 8.0 | 12.9 | 0.00 | 0.53 | 0.15 | 91 | 1011.9 |
| 20260506005016 | 11 | 286 | 6.4 | 9.7 | 0.15 | 0.53 | 0.15 | 91 | 1011.9 |
| 20260506004016 | 11 | 286 | 4.8 | 9.7 | 0.15 | 0.53 | 0.15 | 91 | 1012.0 |
| 20260506003016 | 11 | 286 | 3.2 | 6.4 | 0.15 | 0.53 | 0.15 | 91 | 1012.1 |
| 20260506002036 | 11 | 286 | 6.4 | 12.9 | 0.15 | 0.53 | 0.15 | 91 | 1012.1 |
| 20260506001016 | 11 | 281 | 6.4 | 9.7 | 0.15 | 0.53 | 0.15 | 90 | 1012.2 |
| 20260506000016 | 11 | 281 | 6.4 | 12.9 | 0.15 | 0.53 | 0.15 | 90 | 1012.3 |
| 20260505235016 | -17 | 0.0 | 0.0 | 0.00 | 0.41 | 0.00 | |||
| 20260505234016 | -17 | 0.0 | 0.0 | 0.00 | 0.41 | 0.00 | |||
| 20260505233016 | -17 | 0.0 | 0.0 | 0.00 | 0.41 | 0.00 | |||
| 20260505232137 | -17 | 0.0 | 0.0 | 0.00 | 0.41 | 0.00 | |||
| 20260505231516 | -17 | 0.0 | 0.0 | 0.00 | 0.41 | 0.00 | |||
| 20260505230516 | -17 | 0.0 | 0.0 | 0.00 | 0.41 | 0.00 | |||
| 20260505225515 | -17 | 0.0 | 0.0 | 0.00 | 0.41 | 0.00 | |||
| 20260505224716 | -17 | 0.0 | 0.0 | 0.00 | 0.41 | 0.00 | |||
| 20260505224016 | -17 | 0.0 | 0.0 | 0.00 | 0.41 | 0.00 | |||
| 20260505223017 | -17 | 0.0 | 0.0 | 0.00 | 0.41 | 0.00 | |||
| 20260505222516 | -17 | 0.0 | 0.0 | 0.00 | 0.41 | 0.00 | |||
| 20260505221516 | -17 | 0.0 | 0.0 | 0.00 | 0.41 | 0.00 | |||
| 20260505220516 | -17 | 0.0 | 0.0 | 0.00 | 0.41 | 0.00 | |||
| 20260505215619 | -17 | 0.0 | 0.0 | 0.00 | 0.41 | 0.41 | |||
| 20260505215016 | -17 | 0.0 | 0.0 | 0.00 | 0.41 | 0.41 | |||
| 20260505214016 | -17 | 0.0 | 0.0 | 0.00 | 0.41 | 0.41 | |||
| 20260505213016 | -17 | 0.0 | 0.0 | 0.00 | 0.43 | 0.41 | |||
| 20260505212219 | -17 | 0.0 | 0.0 | 0.00 | 0.43 | 0.41 | |||
| 20260505211516 | -17 | 0.0 | 0.0 | 0.00 | 0.43 | 0.41 | |||
| 20260505210539 | -17 | 0.0 | 0.0 | 0.00 | 0.43 | 0.41 | |||
| 20260505210016 | -17 | 0.0 | 0.0 | 0.00 | 0.43 | 0.41 | |||
| 20260505205017 | -17 | 0.0 | 0.0 | 0.00 | 0.43 | 0.41 | |||
| 20260505204016 | -17 | 0.0 | 0.0 | 0.00 | 0.43 | 0.41 | |||
| 20260505203119 | -17 | 0.0 | 0.0 | 0.00 | 0.43 | 0.41 | |||
| 20260505202516 | -17 | 0.0 | 0.0 | 0.00 | 0.43 | 0.41 | |||
| 20260505201517 | -17 | 0.0 | 0.0 | 0.00 | 0.43 | 0.41 | |||
| 20260505200516 | -17 | 0.0 | 0.0 | 0.00 | 0.43 | 0.41 | |||
| 20260505195739 | -17 | 0.0 | 0.0 | 0.00 | 0.43 | 0.41 | |||
| 20260505195058 | -17 | 0.0 | 0.0 | 0.00 | 0.43 | 0.41 | |||
| 20260505194059 | -17 | 0.0 | 0.0 | 0.00 | 0.43 | 0.41 | |||
| 20260505193537 | -17 | 0.0 | 0.0 | 0.00 | 0.43 | 0.41 | |||
| 20260505192516 | -17 | 0.0 | 0.0 | 0.00 | 0.43 | 0.41 | |||
| 20260505191516 | -17 | 0.0 | 0.0 | 0.00 | 0.43 | 0.41 | |||
| 20260505190644 | -17 | 0.0 | 0.0 | 0.00 | 0.43 | 0.41 | |||
| 20260505190016 | -17 | 0.0 | 0.0 | 0.00 | 0.43 | 0.41 | |||
| 20260505185016 | -17 | 0.0 | 0.0 | 0.00 | 0.43 | 0.41 | |||
| 20260505184016 | -17 | 0.0 | 0.0 | 0.00 | 0.43 | 0.41 | |||
| 20260505183219 | -17 | 0.0 | 0.0 | 0.00 | 0.43 | 0.41 | |||
| 20260505182516 | -17 | 0.0 | 0.0 | 0.00 | 0.43 | 0.41 | |||
| 20260505181539 | -17 | 0.0 | 0.0 | 0.00 | 0.43 | 0.41 | |||
| 20260505181016 | -17 | 0.0 | 0.0 | 0.00 | 0.43 | 0.41 | |||
| 20260505180129 | -17 | 0.0 | 0.0 | 0.00 | 0.43 | 0.41 | |||
| 20260505175016 | -17 | 0.0 | 0.0 | 0.00 | 0.43 | 0.41 | |||
| 20260505174118 | -17 | 0.0 | 0.0 | 0.00 | 0.43 | 0.41 | |||
| 20260505173516 | -17 | 0.0 | 0.0 | 0.00 | 0.43 | 0.41 | |||
| 20260505172516 | -17 | 0.0 | 0.0 | 0.00 | 0.43 | 0.41 | |||
| 20260505171536 | -17 | 0.0 | 0.0 | 0.03 | 0.43 | 0.41 | |||
| 20260505170718 | -17 | 0.0 | 0.0 | 0.05 | 0.43 | 0.41 | |||
| 20260505170016 | -17 | 0.0 | 0.0 | 0.08 | 0.43 | 0.41 | |||
| 20260505165038 | -17 | 0.0 | 0.0 | 0.13 | 0.43 | 0.41 | |||
| 20260505164515 | -17 | 0.0 | 0.0 | 0.13 | 0.43 | 0.41 | |||
| 20260505163536 | -17 | 0.0 | 0.0 | 0.15 | 0.43 | 0.41 | |||
| 20260505163027 | 12 | 285 | 19.3 | 19.3 | 0.25 | 0.43 | 0.41 | 88 | 1012.6 |
| 20260505162530 | 12 | 293 | 19.3 | 19.3 | 0.36 | 0.43 | 0.41 | 88 | 1012.5 |
| 20260505162016 | 12 | 293 | 24.1 | 29.0 | 0.41 | 0.43 | 0.41 | 88 | 1012.3 |
| 20260505161035 | 12 | 286 | 25.7 | 40.2 | 0.36 | 1.22 | 0.36 | 89 | 1012.3 |
| 20260505153016 | 13 | 284 | 43.5 | 56.3 | 0.15 | 0.99 | 0.15 | 84 | 1011.2 |
| 20260505152016 | 15 | 287 | 20.9 | 30.6 | 0.00 | 0.86 | 0.00 | 79 | 1010.7 |
| 20260505151016 | 16 | 281 | 22.5 | 33.8 | 0.00 | 0.86 | 0.00 | 78 | 1010.4 |